Content
SEND FEEDBACK

Daily
Averages
Monthly
Summary
United States of America

GLENVIEW, ILLINOIS


Home > North America > United States > Illinois
Elevation: 653 feet     Latitude: 42 05N     Longitude: 087 50W

WEATHER
 
SELECT A DAY
Number of Records: 199,667;   Date Range: 7/8/95 - 12/21/14
 
SHARE

PRINT THIS DATA

[ ← Previous Day ]
WEATHER ALMANAC - FEBRUARY 14, 2013
[ Next Day → ]
[ °C ]   °F
Weather ElementAverageHighLow
Temperature36.7 °F39 °F (5:52 am)33.1 °F (9:52 pm)
Dewpoint27 °F32 °F (3:52 am)19.9 °F (8:52 pm)
Humidity68.7 %82 % (3:52 am)54 % (8:52 pm)
Barometer29.79 in29.99 in (9:52 pm)29.65 in (5:52 am)
Wind Speed11 mph15 mph (10:35 am)
Wind Gust25.3 mph (9:52 am)
Weather ElementAverage
Visibility9.9 mi
Wind DirectionWSW (255.4 °)

Weather ElementTotal
Precipitation---
Heating Degree Days29 (Base 65)
Averaged from 26 records on February 14, 2013
WEATHER CONDITIONS BREAKOUT
WIND DIRECTION BREAKOUT
WEATHER BY HOUR - FEBRUARY 14, 2013
[ °C ]   °F
Local TimeTemperatureDewpointHumidityBarometerVisibilityWind DirectionWind SpeedGust SpeedPrecipitationEventsConditions
1:52 AM36.0 °F30.0 °F79 %29.72 in8.0 miSouth (170°)8.1 mphOvercast
2:52 AM37.9 °F30.9 °F76 %29.70 in10.0 miSouth (190°)10.4 mphOvercast
3:52 AM37.0 °F32.0 °F82 %29.67 in10.0 miSouth (170°)10.4 mph0.00 inOvercast
4:52 AM37.9 °F30.9 °F76 %29.66 in10.0 miSouth (190°)9.2 mphOvercast
5:52 AM39.0 °F30.9 °F73 %29.65 in10.0 miSSW (200°)12.7 mphMostly Cloudy
6:52 AM37.0 °F30.0 °F76 %29.66 in10.0 miSW (220°)8.1 mph17.3 mphClear
7:52 AM37.9 °F30.9 °F76 %29.68 in10.0 miWSW (240°)11.5 mph19.6 mphClear
8:52 AM37.9 °F30.9 °F76 %29.68 in10.0 miWSW (250°)10.4 mphOvercast
9:17 AM37.4 °F30.2 °F75 %29.67 in10.0 miWSW (240°)10.4 mph20.7 mphOvercast
9:52 AM37.9 °F30.0 °F73 %29.70 in10.0 miWest (260°)13.8 mph25.3 mphOvercast
10:15 AM37.4 °F30.2 °F75 %29.68 in10.0 miWSW (240°)11.5 mph20.7 mphOvercast
10:35 AM37.4 °F30.2 °F75 %29.69 in10.0 miWSW (250°)15.0 mph24.2 mphOvercast
10:52 AM37.9 °F30.0 °F73 %29.71 in10.0 miWest (260°)12.7 mph20.7 mphOvercast
11:52 AM37.9 °F30.0 °F73 %29.72 in10.0 miWest (270°)13.8 mph23.0 mphOvercast
12:52 PM37.9 °F30.0 °F73 %29.73 in10.0 miWest (270°)13.8 mph25.3 mphOvercast
1:52 PM37.9 °F28.0 °F68 %29.76 in10.0 miWest (280°)15.0 mph25.3 mphOvercast
2:52 PM37.0 °F26.1 °F65 %29.81 in10.0 miNW (310°)13.8 mph24.2 mphOvercast
3:52 PM37.9 °F25.0 °F60 %29.85 in10.0 miWest (280°)13.8 mph20.7 mphOvercast
4:52 PM36.0 °F23.0 °F59 %29.89 in10.0 miNW (310°)11.5 mph24.2 mphOvercast
5:52 PM36.0 °F21.0 °F55 %29.94 in10.0 miWNW (300°)13.8 mph21.9 mphOvercast
6:52 PM35.1 °F21.9 °F59 %29.96 in10.0 miWNW (300°)11.5 mph20.7 mphOvercast
7:52 PM35.1 °F21.0 °F57 %29.97 in10.0 miWNW (300°)12.7 mphOvercast
8:52 PM35.1 °F19.9 °F54 %29.98 in10.0 miNW (310°)6.9 mphOvercast
9:52 PM33.1 °F19.9 °F59 %29.99 in10.0 miNW (310°)6.9 mphOvercast
10:52 PM33.1 °F19.9 °F59 %29.99 in10.0 miSW (230°)3.5 mphOvercast
11:52 PM33.1 °F19.9 °F59 %29.99 in10.0 miWNW (290°)4.6 mphOvercast
Hourly data recorded from KPWK, located miles away from Glenview, Illinois







STORIES FROM OUR PARTNERS